EW9733 Weather Reports


Display with metric or nautical units.
time (UTC)temp
F
wind
direction
speed
MPH
gust
MPH
rain 1hr
in
rain 24hr
in
rain mn
in
humidity
%
barometer
mb
20260902234521 66 177 0.0 0.0 0.00 0.01 0.01 81 1019.4
20260902233013 66 177 0.0 0.0 0.00 0.01 0.01 80 1019.3
20260902231514 67 177 0.0 2.0 0.00 0.01 0.01 78 1019.2
20260902230012 68 184 0.0 2.0 0.00 0.01 0.01 77 1019.5
20260902224512 68 185 0.0 4.0 0.00 0.01 0.01 75 1019.6
20260902223022 69 87 0.0 4.0 0.00 0.01 0.01 74 1019.5
20260902221516 69 126 0.0 2.0 0.00 0.01 0.01 73 1019.7
20260902220011 70 121 0.0 2.0 0.00 0.01 0.01 72 1019.8
20260902214510 70 138 1.0 4.0 0.00 0.01 0.01 71 1019.5
20260902213009 70 147 0.0 6.0 0.00 0.01 0.01 71 1019.2
20260902211508 71 141 0.0 5.0 0.00 0.01 0.01 71 1019.6
20260902210008 71 48 1.0 8.0 0.00 0.01 0.01 70 1019.5
20260902204513 72 42 0.0 3.0 0.00 0.01 0.01 69 1019.8
20260902203008 72 57 1.0 6.0 0.00 0.01 0.01 66 1019.9
20260902201505 73 80 1.0 5.0 0.00 0.01 0.01 63 1019.7
20260902200005 73 66 1.0 8.0 0.00 0.01 0.01 60 1019.9
20260902194508 74 157 1.0 6.0 0.00 0.01 0.01 61 1020.0
20260902193004 74 63 0.0 9.0 0.00 0.01 0.01 58 1020.1
20260902191503 74 112 2.0 6.0 0.00 0.01 0.01 59 1020.1
20260902190002 73 159 3.0 10.0 0.00 0.01 0.01 61 1019.9
20260902184502 74 69 3.0 9.0 0.00 0.02 0.01 63 1019.9
20260902183003 74 192 1.0 9.0 0.00 0.02 0.01 60 1020.1
20260902181601 74 84 3.0 10.0 0.00 0.02 0.01 59 1020.1
20260902180118 74 39 2.0 6.0 0.00 0.02 0.01 62 1020.0
20260902174600 74 156 1.0 8.0 0.00 0.02 0.01 61 1020.2
20260902173059 74 171 5.0 9.0 0.00 0.02 0.01 61 1020.3
20260902171558 74 48 4.0 10.0 0.00 0.02 0.01 61 1020.4
20260902170059 74 184 2.0 8.0 0.00 0.02 0.01 60 1020.4
20260902164554 74 204 2.0 6.0 0.00 0.02 0.01 62 1020.5
20260902163054 73 45 0.0 9.0 0.00 0.02 0.01 64 1020.4
20260902161554 72 153 1.0 7.0 0.00 0.02 0.01 62 1020.6
20260902160056 73 181 3.0 8.0 0.00 0.02 0.01 64 1020.7
20260902154550 73 71 2.0 8.0 0.00 0.03 0.01 64 1021.0
20260902153048 72 81 0.0 8.0 0.00 0.03 0.01 67 1020.9
20260902151544 72 29 2.0 7.0 0.00 0.03 0.01 69 1020.9
20260902150039 72 11 0.0 5.0 0.01 0.03 0.01 74 1021.0
20260902144535 70 87 1.0 5.0 0.01 0.03 0.01 77 1020.8
20260902143030 69 186 1.0 6.0 0.01 0.03 0.01 80 1020.7
20260902141535 69 30 3.0 9.0 0.01 0.03 0.01 80 1020.5
20260902140024 68 82 2.0 6.0 0.00 0.02 0.00 82 1020.2
20260902134520 67 67 2.0 8.0 0.00 0.05 0.00 84 1020.3
20260902133017 66 57 0.0 5.0 0.00 0.05 0.00 89 1020.3
20260902131521 65 163 0.0 3.0 0.00 0.05 0.00 92 1020.5
20260902130010 65 57 1.0 4.0 0.00 0.05 0.00 93 1020.3
20260902124508 64 70 0.0 2.0 0.00 0.05 0.00 94 1020.5
20260902123005 64 122 0.0 2.0 0.00 0.05 0.00 94 1020.4
20260902121501 64 120 0.0 1.0 0.00 0.05 0.00 94 1020.5
20260902120057 62 121 0.0 0.0 0.00 0.05 0.00 94 1020.8
20260902114554 62 121 0.0 0.0 0.00 0.05 0.00 94 1020.8
20260902113106 61 121 0.0 0.0 0.00 0.05 0.00 94 1020.5
20260902111556 61 121 0.0 0.0 0.00 0.05 0.00 94 1020.4
20260902110022 61 121 0.0 0.0 0.00 0.05 0.00 94 1020.2
20260902104534 60 121 0.0 0.0 0.00 0.05 0.00 94 1019.9
20260902103016 60 121 0.0 0.0 0.00 0.05 0.00 93 1019.7
20260902101514 60 121 0.0 0.0 0.00 0.05 0.00 93 1019.6
20260902100013 60 121 0.0 0.0 0.00 0.05 0.00 93 1019.5
20260902094518 59 121 0.0 0.0 0.00 0.05 0.00 93 1019.6
20260902093011 59 121 0.0 0.0 0.00 0.05 0.00 93 1019.5
20260902091508 60 121 0.0 0.0 0.00 0.05 0.00 93 1019.4
20260902090007 60 121 0.0 0.0 0.00 0.05 0.00 93 1019.2
20260902084505 60 121 0.0 0.0 0.00 0.05 0.00 93 1019.0
20260902083004 61 121 0.0 0.0 0.00 0.05 0.00 93 1019.2
20260902081513 61 121 0.0 0.0 0.00 0.05 0.00 93 1019.1
20260902080005 61 121 0.0 0.0 0.00 0.05 0.00 93 1019.2
20260902074501 61 121 0.0 0.0 0.00 0.05 0.00 93 1019.3
20260902073101 61 121 0.0 0.0 0.00 0.05 0.00 93 1019.2
20260902071601 61 121 0.0 0.0 0.00 0.05 0.00 93 1019.0
20260902070104 61 121 0.0 0.0 0.00 0.05 0.00 93 1019.0
20260902064605 61 121 0.0 0.0 0.00 0.05 0.00 93 1019.0
20260902063057 61 121 0.0 0.0 0.00 0.05 0.00 93 1019.0
20260902061612 61 121 0.0 0.0 0.00 0.05 0.00 93 1019.0
20260902060058 61 121 0.0 0.0 0.00 0.05 0.00 93 1019.2
20260902054601 61 121 0.0 0.0 0.00 0.05 0.00 92 1019.1
20260902053055 61 121 0.0 0.0 0.00 0.05 0.00 92 1019.1
20260902051556 61 121 0.0 0.0 0.00 0.05 0.00 92 1019.0
20260902050100 61 121 0.0 0.0 0.00 0.05 0.00 92 1018.8
20260902044548 61 121 0.0 0.0 0.00 0.05 0.00 92 1018.6
20260902043045 61 121 0.0 0.0 0.00 0.05 0.00 92 1018.1
20260902041556 61 121 0.0 0.0 0.00 0.05 0.00 92 1017.9
20260902040042 61 121 0.0 0.0 0.00 0.05 0.00 92 1018.2
20260902034544 61 121 0.0 0.0 0.00 0.05 0.05 92 1018.0
20260902033045 61 121 0.0 0.0 0.00 0.05 0.05 91 1017.7
20260902031540 61 121 0.0 0.0 0.00 0.05 0.05 91 1018.0
20260902030041 61 121 0.0 0.0 0.00 0.05 0.05 91 1018.1
20260902024542 61 121 0.0 0.0 0.00 0.05 0.05 90 1018.0
20260902023037 61 121 0.0 0.0 0.00 0.05 0.05 90 1018.0
20260902021546 62 121 0.0 0.0 0.00 0.05 0.05 90 1017.8
20260902020034 62 121 0.0 0.0 0.00 0.05 0.05 90 1018.0
20260902014537 63 121 0.0 0.0 0.00 0.05 0.05 90 1017.9
20260902013032 63 121 0.0 0.0 0.00 0.05 0.05 90 1017.7
20260902011536 63 121 0.0 0.0 0.00 0.05 0.05 89 1017.8
20260902010042 63 121 0.0 0.0 0.00 0.05 0.05 89 1017.7
20260902004533 64 121 0.0 0.0 0.00 0.05 0.05 89 1017.3
20260902003025 64 121 0.0 0.0 0.00 0.05 0.05 89 1017.3
20260902001524 64 121 0.0 0.0 0.00 0.05 0.05 88 1017.4
20260902000036 64 121 0.0 0.0 0.00 0.05 0.05 88 1017.6